Location: Hopville
(44.8032°N, 123.1329°W)
Time: 04:46:53
(UTC+00:00)

ATLAS CENTAUR R/B - Pass Details

Date: 24 January 2021
Orbit: 471 x 674 km, 64.6° (Epoch: 24 February)

Event Time Altitude Azimuth Distance (km) Brightness Sun altitude
Exits shadow 13:59:17 19° 214° (SW) 1,187 2.8 -17.7°
Maximum altitude 14:01:47 89° 141° (SE) 478 0.9 -17.3°
Drops below altitude 10° 14:05:25 10° 36° (NE) 1,642 4.1 -16.6°
Sets 14:07:34 0° 36° (NE) 2,531 5.1 -16.3°
